KLM2636 LIML-EHAM

Flight info

Callsign KLM2636
Flight time 1h 23m
Altitude 36000
Route ARLES DCT PUNSA DCT VADEM DCT GILIR DCT PENDU DCT IXILU DCT EPL DCT ROUSY DCT KOMOB DCT BUB Y28 HELEN
Aircraft A321/M-SDE3FGHIRWY/LB1

Departure

Time 2026-04-28 12:06
Airport Milano Linate Airport (LIML)

Arrival

Time 2026-04-28 13:29
Airport Amsterdam Airport Schiphol (EHAM)
Time Latitude Longitude Altitude Speed Heading
2026-04-28 11:50 45.45967 9.27904 363 ft 0 kts
2026-04-28 11:53 45.45966 9.27904 363 ft 0 kts
2026-04-28 11:58 45.45948 9.27903 365 ft 3 kts
2026-04-28 11:59 45.45929 9.27903 363 ft 3 kts 330°
2026-04-28 11:59 45.45918 9.27922 364 ft 2 kts 275°
2026-04-28 12:00 45.45918 9.27919 363 ft 2 kts 273°
2026-04-28 12:00 45.45908 9.27917 368 ft 2 kts 171°
2026-04-28 12:01 45.45879 9.27966 365 ft 11 kts 152°
2026-04-28 12:01 45.45771 9.27983 365 ft 18 kts 180°
2026-04-28 12:01 45.45618 9.27983 363 ft 25 kts 180°
2026-04-28 12:01 45.45500 9.27981 365 ft 26 kts 181°
2026-04-28 12:02 45.45329 9.27938 363 ft 25 kts 205°
2026-04-28 12:02 45.45151 9.27880 366 ft 27 kts 178°
2026-04-28 12:02 45.44965 9.27894 361 ft 27 kts 174°
2026-04-28 12:02 45.44775 9.27934 361 ft 29 kts 182°
2026-04-28 12:03 45.44576 9.27971 363 ft 29 kts 176°
2026-04-28 12:03 45.44379 9.27990 357 ft 28 kts 176°
2026-04-28 12:03 45.44184 9.28012 356 ft 28 kts 175°
2026-04-28 12:03 45.43980 9.28038 357 ft 30 kts 174°
2026-04-28 12:04 45.43776 9.28062 351 ft 29 kts 175°
2026-04-28 12:04 45.43573 9.28080 349 ft 29 kts 176°
2026-04-28 12:04 45.43449 9.27959 353 ft 24 kts 270°
2026-04-28 12:04 45.43506 9.27816 353 ft 13 kts
2026-04-28 12:05 45.43583 9.27809 353 ft 13 kts 355°
2026-04-28 12:05 45.43893 9.27776 355 ft 90 kts 355°
2026-04-28 12:05 45.44785 9.27676 372 ft 162 kts 355°
2026-04-28 12:05 45.45999 9.27521 946 ft 179 kts 355°
2026-04-28 12:06 45.47193 9.27053 1909 ft 177 kts 345°
2026-04-28 12:06 45.48340 9.26517 2656 ft 174 kts 346°
2026-04-28 12:06 45.49547 9.25952 2937 ft 193 kts 343°
2026-04-28 12:06 45.50891 9.25324 3143 ft 214 kts 343°
2026-04-28 12:07 45.52367 9.24596 3271 ft 237 kts 342°
2026-04-28 12:07 45.54004 9.23751 3558 ft 261 kts 341°
2026-04-28 12:07 45.55748 9.22841 4212 ft 271 kts 341°
2026-04-28 12:07 45.57543 9.21932 5020 ft 276 kts 340°
2026-04-28 12:08 45.59358 9.20979 5823 ft 279 kts 334°
2026-04-28 12:08 45.60985 9.19463 6624 ft 281 kts 316°
2026-04-28 12:08 45.62227 9.17312 7406 ft 282 kts 298°
2026-04-28 12:08 45.62970 9.14731 8199 ft 282 kts 281°
2026-04-28 12:09 45.63342 9.11976 9014 ft 283 kts 279°
2026-04-28 12:09 45.63710 9.09201 9830 ft 285 kts 279°
2026-04-28 12:09 45.64086 9.06383 10399 ft 297 kts 279°
2026-04-28 12:09 45.64538 9.03391 10574 ft 320 kts 285°
2026-04-28 12:10 45.65420 9.00383 10982 ft 335 kts 297°
2026-04-28 12:10 45.66654 8.97532 11649 ft 339 kts 300°
2026-04-28 12:10 45.67918 8.94671 12386 ft 342 kts 300°
2026-04-28 12:10 45.69192 8.91785 13123 ft 344 kts 300°
2026-04-28 12:11 45.70474 8.88881 13850 ft 347 kts 300°
2026-04-28 12:11 45.71767 8.85955 14504 ft 349 kts 300°
2026-04-28 12:11 45.73066 8.83006 15143 ft 352 kts 300°
2026-04-28 12:11 45.74374 8.80036 15803 ft 354 kts 300°
2026-04-28 12:12 45.75689 8.77045 16452 ft 356 kts 300°
2026-04-28 12:12 45.77015 8.74030 17086 ft 359 kts 300°
2026-04-28 12:12 45.78352 8.70988 17704 ft 362 kts 300°
2026-04-28 12:12 45.79696 8.67924 18342 ft 364 kts 300°
2026-04-28 12:13 45.81047 8.64841 18909 ft 366 kts 300°
2026-04-28 12:13 45.82404 8.61741 19431 ft 368 kts 300°
2026-04-28 12:13 45.83769 8.58619 19956 ft 370 kts 300°
2026-04-28 12:13 45.85139 8.55480 20467 ft 373 kts 299°
2026-04-28 12:14 45.86519 8.52312 20963 ft 376 kts 299°
2026-04-28 12:14 45.87908 8.49118 21450 ft 379 kts 299°
2026-04-28 12:14 45.89303 8.45906 21992 ft 380 kts 299°
2026-04-28 12:14 45.90704 8.42677 22535 ft 382 kts 299°
2026-04-28 12:15 45.92111 8.39431 23067 ft 384 kts 299°
2026-04-28 12:15 45.93527 8.36165 23568 ft 386 kts 299°
2026-04-28 12:15 45.94941 8.32877 23980 ft 388 kts 298°
2026-04-28 12:15 45.96359 8.29567 24367 ft 390 kts 298°
2026-04-28 12:16 45.97783 8.26238 24792 ft 391 kts 298°
2026-04-28 12:16 45.99208 8.22904 25181 ft 392 kts 298°
2026-04-28 12:16 46.00638 8.19553 25582 ft 395 kts 298°
2026-04-28 12:16 46.02079 8.16176 25960 ft 397 kts 298°
2026-04-28 12:17 46.03528 8.12780 26317 ft 399 kts 298°
2026-04-28 12:17 46.04980 8.09367 26698 ft 400 kts 298°
2026-04-28 12:17 46.06434 8.05941 27031 ft 402 kts 298°
2026-04-28 12:17 46.07876 8.02542 27417 ft 404 kts 298°
2026-04-28 12:18 46.09365 7.99045 27796 ft 405 kts 298°
2026-04-28 12:18 46.10844 7.95585 28203 ft 406 kts 298°
2026-04-28 12:18 46.12336 7.92109 28624 ft 408 kts 298°
2026-04-28 12:18 46.13812 7.88666 28949 ft 411 kts 298°
2026-04-28 12:19 46.15313 7.85154 29353 ft 412 kts 297°
2026-04-28 12:19 46.16814 7.81631 29706 ft 414 kts 297°
2026-04-28 12:19 46.18322 7.78086 30008 ft 416 kts 297°
2026-04-28 12:19 46.19837 7.74512 30283 ft 418 kts 297°
2026-04-28 12:20 46.21353 7.70932 30616 ft 418 kts 297°
2026-04-28 12:20 46.22873 7.67348 30876 ft 420 kts 297°
2026-04-28 12:20 46.24400 7.63744 31187 ft 421 kts 297°
2026-04-28 12:20 46.25921 7.60152 31652 ft 418 kts 297°
2026-04-28 12:21 46.27433 7.56578 32139 ft 415 kts 297°
2026-04-28 12:21 46.28931 7.53024 32613 ft 413 kts 297°
2026-04-28 12:21 46.30419 7.49485 33069 ft 410 kts 297°
2026-04-28 12:21 46.31896 7.45964 33525 ft 408 kts 297°
2026-04-28 12:22 46.33365 7.42460 33990 ft 406 kts 297°
2026-04-28 12:22 46.34826 7.38974 34374 ft 405 kts 297°
2026-04-28 12:22 46.36286 7.35493 34680 ft 404 kts 297°
2026-04-28 12:22 46.37743 7.32011 34991 ft 404 kts 297°
2026-04-28 12:23 46.39200 7.28524 35251 ft 405 kts 297°
2026-04-28 12:23 46.40658 7.25035 35503 ft 404 kts 297°
2026-04-28 12:23 46.42112 7.21546 35723 ft 405 kts 297°
2026-04-28 12:23 46.43563 7.18051 35954 ft 405 kts 297°
2026-04-28 12:24 46.46460 7.11067 36066 ft 401 kts 297°
2026-04-28 12:24 46.49327 7.04148 36071 ft 400 kts 297°
2026-04-28 12:25 46.52186 6.97227 36073 ft 400 kts 297°
2026-04-28 12:25 46.55033 6.90305 36072 ft 399 kts 297°
2026-04-28 12:26 46.57879 6.83373 36075 ft 399 kts 297°
2026-04-28 12:26 46.60725 6.76441 36085 ft 399 kts 297°
2026-04-28 12:27 46.63575 6.69507 36090 ft 399 kts 297°
2026-04-28 12:27 46.66404 6.62551 36087 ft 399 kts 297°
2026-04-28 12:28 46.69227 6.55589 36086 ft 399 kts 297°
2026-04-28 12:28 46.72594 6.49121 36077 ft 408 kts 312°
2026-04-28 12:29 46.77433 6.44601 36067 ft 421 kts 328°
2026-04-28 12:29 46.80069 6.42739 36079 ft 421 kts 328°
2026-04-28 12:30 46.85311 6.39021 36073 ft 422 kts 328°
2026-04-28 12:30 46.90593 6.35244 36060 ft 423 kts 327°
2026-04-28 12:31 46.95875 6.31450 36057 ft 423 kts 327°
2026-04-28 12:31 47.01163 6.27651 36079 ft 423 kts 327°
2026-04-28 12:32 47.06451 6.23837 36066 ft 424 kts 327°
2026-04-28 12:32 47.11745 6.20026 36062 ft 424 kts 327°
2026-04-28 12:33 47.17044 6.16210 36061 ft 424 kts 327°
2026-04-28 12:33 47.22335 6.12380 36083 ft 424 kts 327°
2026-04-28 12:34 47.27631 6.08549 36070 ft 424 kts 327°
2026-04-28 12:34 47.32990 6.04854 36059 ft 430 kts 334°
2026-04-28 12:35 47.38975 6.03339 36051 ft 447 kts 354°
2026-04-28 12:35 47.45201 6.03498 36062 ft 448 kts 354°
2026-04-28 12:36 47.51447 6.03647 36056 ft 449 kts 354°
2026-04-28 12:36 47.57690 6.03792 36053 ft 449 kts 354°
2026-04-28 12:37 47.63938 6.03917 36051 ft 449 kts 354°
2026-04-28 12:37 47.70185 6.04053 36070 ft 449 kts 354°
2026-04-28 12:38 47.76438 6.04203 36064 ft 450 kts 354°
2026-04-28 12:38 47.82694 6.04399 36054 ft 450 kts 354°
2026-04-28 12:39 47.88952 6.04600 36059 ft 450 kts 354°
2026-04-28 12:39 47.95211 6.04794 36054 ft 450 kts 354°
2026-04-28 12:40 48.01479 6.04996 36056 ft 451 kts 354°
2026-04-28 12:40 48.07748 6.05199 36072 ft 451 kts 354°
2026-04-28 12:41 48.14021 6.05395 36060 ft 451 kts 354°
2026-04-28 12:41 48.20299 6.05586 36058 ft 452 kts 354°
2026-04-28 12:42 48.26584 6.05777 36058 ft 452 kts 354°
2026-04-28 12:42 48.32831 6.05974 36067 ft 452 kts 355°
2026-04-28 12:43 48.39126 6.06257 36063 ft 453 kts 355°
2026-04-28 12:43 48.45426 6.06571 36061 ft 453 kts 355°
2026-04-28 12:44 48.51724 6.06881 36068 ft 453 kts 355°
2026-04-28 12:44 48.58022 6.07181 36080 ft 453 kts 356°
2026-04-28 12:45 48.64321 6.07478 36062 ft 453 kts 356°
2026-04-28 12:45 48.70626 6.07781 36056 ft 453 kts 356°
2026-04-28 12:46 48.76937 6.08079 36061 ft 454 kts 356°
2026-04-28 12:46 48.82228 6.08338 36051 ft 454 kts 356°
2026-04-28 12:47 48.88543 6.08646 36080 ft 454 kts 356°
2026-04-28 12:47 48.94852 6.08935 36100 ft 454 kts 357°
2026-04-28 12:48 49.01157 6.09243 36094 ft 453 kts 357°
2026-04-28 12:48 49.07457 6.09549 36096 ft 453 kts 357°
2026-04-28 12:49 49.13754 6.09849 36094 ft 452 kts 357°
2026-04-28 12:49 49.20041 6.10148 36095 ft 452 kts 358°
2026-04-28 12:50 49.26324 6.10461 36086 ft 452 kts 358°
2026-04-28 12:50 49.32601 6.10759 36096 ft 451 kts 357°
2026-04-28 12:51 49.38880 6.11058 36117 ft 451 kts 358°
2026-04-28 12:51 49.45107 6.10762 36116 ft 444 kts 345°
2026-04-28 12:52 49.50813 6.07734 36117 ft 433 kts 327°
2026-04-28 12:52 49.55807 6.02557 36108 ft 430 kts 321°
2026-04-28 12:53 49.60679 5.97214 36113 ft 430 kts 321°
2026-04-28 12:53 49.65522 5.91898 36101 ft 431 kts 321°
2026-04-28 12:54 49.70400 5.86518 36095 ft 431 kts 321°
2026-04-28 12:54 49.75285 5.81110 36085 ft 432 kts 321°
2026-04-28 12:55 49.80177 5.75681 36074 ft 433 kts 321°
2026-04-28 12:55 49.85084 5.70228 36091 ft 434 kts 321°
2026-04-28 12:56 49.89996 5.64757 36089 ft 436 kts 321°
2026-04-28 12:56 49.94917 5.59256 36092 ft 436 kts 321°
2026-04-28 12:57 49.99843 5.53744 36094 ft 437 kts 321°
2026-04-28 12:57 50.04771 5.48207 36102 ft 437 kts 321°
2026-04-28 12:58 50.09703 5.42660 36097 ft 438 kts 322°
2026-04-28 12:58 50.14651 5.37071 36096 ft 440 kts 321°
2026-04-28 12:59 50.19667 5.31558 36102 ft 442 kts 322°
2026-04-28 12:59 50.24743 5.26125 36114 ft 443 kts 323°
2026-04-28 13:00 50.29813 5.20660 36118 ft 442 kts 323°
2026-04-28 13:00 50.34861 5.15146 36123 ft 443 kts 322°
2026-04-28 13:01 50.39916 5.09613 36123 ft 444 kts 322°
2026-04-28 13:01 50.44988 5.04066 36128 ft 445 kts 322°
2026-04-28 13:02 50.50075 4.98474 36126 ft 447 kts 322°
2026-04-28 13:02 50.55173 4.92854 36130 ft 448 kts 323°
2026-04-28 13:03 50.60276 4.87218 36151 ft 448 kts 324°
2026-04-28 13:03 50.65384 4.81569 36153 ft 448 kts 323°
2026-04-28 13:04 50.70484 4.75907 36110 ft 449 kts 323°
2026-04-28 13:04 50.73049 4.73048 35433 ft 453 kts 323°
2026-04-28 13:04 50.75615 4.70184 34887 ft 451 kts 322°
2026-04-28 13:04 50.78174 4.67326 34334 ft 450 kts 323°
2026-04-28 13:05 50.80728 4.64465 33686 ft 449 kts 323°
2026-04-28 13:05 50.83236 4.61652 33149 ft 446 kts 324°
2026-04-28 13:05 50.85798 4.58776 32565 ft 444 kts 323°
2026-04-28 13:05 50.88271 4.55881 32022 ft 441 kts 319°
2026-04-28 13:06 50.90450 4.52499 31479 ft 437 kts 309°
2026-04-28 13:06 50.92248 4.48638 30943 ft 433 kts 300°
2026-04-28 13:06 50.93810 4.44565 30419 ft 431 kts 300°
2026-04-28 13:06 50.95346 4.40572 29851 ft 429 kts 301°
2026-04-28 13:07 50.96916 4.36510 29326 ft 424 kts 300°
2026-04-28 13:07 50.98454 4.32537 28821 ft 420 kts 300°
2026-04-28 13:07 50.99952 4.28653 28328 ft 416 kts 300°
2026-04-28 13:07 51.01451 4.24749 27837 ft 412 kts 300°
2026-04-28 13:08 51.02934 4.20873 27360 ft 409 kts 300°
2026-04-28 13:08 51.04423 4.16976 26897 ft 405 kts 300°
2026-04-28 13:08 51.05876 4.13166 26428 ft 402 kts 300°
2026-04-28 13:08 51.07300 4.09437 25992 ft 398 kts 300°
2026-04-28 13:09 51.08796 4.05758 25545 ft 396 kts 306°
2026-04-28 13:09 51.10613 4.02491 25111 ft 393 kts 316°
2026-04-28 13:09 51.12725 3.99750 24667 ft 391 kts 323°
2026-04-28 13:09 51.14907 3.97189 24238 ft 388 kts 323°
2026-04-28 13:10 51.17070 3.94639 23773 ft 386 kts 323°
2026-04-28 13:10 51.19219 3.92096 23306 ft 383 kts 323°
2026-04-28 13:10 51.21429 3.89760 22865 ft 379 kts 332°
2026-04-28 13:10 51.23829 3.88090 22431 ft 374 kts 342°
2026-04-28 13:11 51.26340 3.87119 21992 ft 370 kts 353°
2026-04-28 13:11 51.28886 3.86842 21564 ft 365 kts
2026-04-28 13:11 51.31412 3.86792 21128 ft 362 kts
2026-04-28 13:11 51.33920 3.86733 20692 ft 359 kts
2026-04-28 13:12 51.36406 3.86668 20277 ft 356 kts
2026-04-28 13:12 51.38879 3.86603 19853 ft 354 kts
2026-04-28 13:12 51.41333 3.86544 19427 ft 352 kts
2026-04-28 13:12 51.43772 3.86487 19009 ft 350 kts
2026-04-28 13:13 51.46203 3.86430 18590 ft 349 kts
2026-04-28 13:13 51.48626 3.86373 18145 ft 347 kts
2026-04-28 13:13 51.51032 3.86318 17729 ft 344 kts 360°
2026-04-28 13:13 51.53412 3.86260 17327 ft 340 kts
2026-04-28 13:14 51.55768 3.86205 16937 ft 337 kts
2026-04-28 13:14 51.58101 3.86152 16542 ft 334 kts
2026-04-28 13:14 51.60414 3.86099 16148 ft 331 kts
2026-04-28 13:14 51.62714 3.86043 15774 ft 329 kts
2026-04-28 13:15 51.64993 3.85985 15391 ft 327 kts
2026-04-28 13:15 51.67260 3.85927 15015 ft 325 kts
2026-04-28 13:15 51.69466 3.86245 14738 ft 314 kts 20°
2026-04-28 13:15 51.71417 3.87630 14372 ft 303 kts 39°
2026-04-28 13:16 51.73065 3.89707 14017 ft 300 kts 43°
2026-04-28 13:16 51.74687 3.91818 13632 ft 299 kts 43°
2026-04-28 13:16 51.76296 3.93915 13253 ft 296 kts 43°
2026-04-28 13:16 51.77891 3.96000 12880 ft 294 kts 42°
2026-04-28 13:17 51.79471 3.98066 12528 ft 291 kts 42°
2026-04-28 13:17 51.81041 4.00119 12159 ft 289 kts 42°
2026-04-28 13:17 51.82598 4.02155 11792 ft 287 kts 42°
2026-04-28 13:17 51.84148 4.04179 11318 ft 289 kts 43°
2026-04-28 13:18 51.85742 4.06270 10634 ft 298 kts 43°
2026-04-28 13:18 51.87354 4.08384 10191 ft 298 kts 43°
2026-04-28 13:18 51.88918 4.10428 10050 ft 287 kts 43°
2026-04-28 13:18 51.90443 4.12418 9876 ft 277 kts 43°
2026-04-28 13:19 51.91937 4.14369 9546 ft 274 kts 43°
2026-04-28 13:19 51.93409 4.16295 9196 ft 271 kts 43°
2026-04-28 13:19 51.94867 4.18201 8827 ft 268 kts 43°
2026-04-28 13:19 51.96315 4.20095 8436 ft 267 kts 43°
2026-04-28 13:20 51.97751 4.21979 8082 ft 264 kts 43°
2026-04-28 13:20 51.99175 4.23849 7705 ft 262 kts 42°
2026-04-28 13:20 52.00591 4.25713 7327 ft 261 kts 42°
2026-04-28 13:20 52.01998 4.27565 6967 ft 260 kts 43°
2026-04-28 13:21 52.03395 4.29404 6595 ft 258 kts 42°
2026-04-28 13:21 52.04787 4.31236 6203 ft 257 kts 43°
2026-04-28 13:21 52.06167 4.33055 5816 ft 254 kts 43°
2026-04-28 13:21 52.07534 4.34862 5460 ft 252 kts 43°
2026-04-28 13:22 52.08893 4.36659 5073 ft 251 kts 43°
2026-04-28 13:22 52.10234 4.38431 4854 ft 243 kts 43°
2026-04-28 13:22 52.11510 4.40117 4726 ft 229 kts 43°
2026-04-28 13:22 52.12706 4.41697 4320 ft 217 kts 43°
2026-04-28 13:23 52.13864 4.43235 3802 ft 212 kts 42°
2026-04-28 13:23 52.14996 4.44743 3255 ft 209 kts 42°
2026-04-28 13:23 52.16117 4.46235 2695 ft 208 kts 41°
2026-04-28 13:23 52.17220 4.47703 2314 ft 198 kts 41°
2026-04-28 13:24 52.18231 4.49042 2207 ft 178 kts 41°
2026-04-28 13:24 52.19156 4.50270 2100 ft 168 kts 41°
2026-04-28 13:24 52.20041 4.51451 2032 ft 164 kts 41°
2026-04-28 13:24 52.20777 4.52836 1999 ft 161 kts 56°
2026-04-28 13:25 52.21403 4.54351 1982 ft 162 kts 57°
2026-04-28 13:25 52.22016 4.55893 1984 ft 162 kts 58°
2026-04-28 13:25 52.22624 4.57447 1985 ft 162 kts 57°
2026-04-28 13:25 52.23219 4.58978 1984 ft 161 kts 58°
2026-04-28 13:26 52.23809 4.60501 1969 ft 152 kts 58°
2026-04-28 13:26 52.24338 4.61867 1721 ft 136 kts 59°
2026-04-28 13:26 52.24832 4.63144 1513 ft 130 kts 58°
2026-04-28 13:26 52.25306 4.64372 1330 ft 127 kts 57°
2026-04-28 13:27 52.25778 4.65596 1150 ft 128 kts 58°
2026-04-28 13:27 52.26249 4.66816 983 ft 126 kts 58°
2026-04-28 13:27 52.26716 4.68026 811 ft 126 kts 58°
2026-04-28 13:27 52.27183 4.69238 672 ft 129 kts 58°
2026-04-28 13:28 52.27657 4.70466 508 ft 126 kts 57°
2026-04-28 13:28 52.28125 4.71683 339 ft 127 kts 57°
2026-04-28 13:28 52.28591 4.72894 163 ft 126 kts 57°
2026-04-28 13:28 52.29059 4.74102 12 ft 123 kts 58°
2026-04-28 13:29 52.29453 4.75123 -5 ft 84 kts 58°
2026-04-28 13:29 52.29668 4.75689 -3 ft 38 kts 58°
2026-04-28 13:29 52.29804 4.76046 -7 ft 36 kts 57°
2026-04-28 13:29 52.29955 4.76425 -5 ft 40 kts 53°
2026-04-28 13:30 52.30113 4.76603 -3 ft 21 kts 27°
2026-04-28 13:30 52.30162 4.76651 -2 ft 2 kts 29°
2026-04-28 13:30 52.30207 4.76692 -2 ft 10 kts 28°
2026-04-28 13:30 52.30272 4.76753 -3 ft 11 kts 33°
2026-04-28 13:31 52.30387 4.77007 -3 ft 11 kts 44°
2026-04-28 13:31 52.30433 4.77031 -3 ft 10 kts 348°
2026-04-28 13:31 52.30493 4.76975 -2 ft 10 kts 312°
2026-04-28 13:32 52.30523 4.76887 -2 ft 6 kts 295°
2026-04-28 13:32 52.30538 4.76830 -2 ft 4 kts 294°
2026-04-28 13:32 52.30540 4.76824 -2 ft 0 kts 294°
2026-04-28 13:32 52.30543 4.76813 -2 ft 0 kts 295°